Weather History for Jacksonville, FL

Change the Weather History Date:

Tuesday, February 19, 2013

  Actual Average Record
Temperature  
Mean Temperature 58 °F 57 °F  
Max Temperature 79 °F 69 °F 86 °F (1891)
Min Temperature 37 °F 45 °F 24 °F (1958)
Degree Days  
Heating Degree Days 7 8  
Month to date heating degree days 199 187  
Since 1 July heating degree days 856 1063  
Cooling Degree Days 0 1  
Month to date cooling degree days 16 14  
Year to date cooling degree days 57 25  
Growing Degree Days 8 (Base 50)    
Moisture  
Dew Point 49 °F    
Average Humidity 68    
Maximum Humidity 100    
Minimum Humidity 35    
Precipitation  
Precipitation T in 0.12 in 2.66 in (1901)
Month to date precipitation 0.26 2.09  
Year to date precipitation 1.27 5.39  
Snow  
Snow 0.00 in 0.00 in 0.00 in (2002)
Month to date snowfall 0.0 0.0  
Since 1 July snowfall 0.0 T  
Snow Depth 0.00 in    
Sea Level Pressure  
Sea Level Pressure 30.12 in    
Wind  
Wind Speed 9 mph (WSW)    
Max Wind Speed 24 mph    
Max Gust Speed 32 mph    
Visibility 10 miles    
Events Rain    
T = Trace of Precipitation, MM = Missing Value Source: NWS Daily Summary

Daily Weather History Graph

Daily Weather History Graph

Search for Another Location

Airport:

Trip Planner

Search our weather history database for the weather conditions in past years. The results will help you decide how hot, cold, wet, or windy it might be!

Date:

Astronomy

Feb. 19, 2013 Rise Set
Actual Time 7:03 AM EST 6:18 PM EST
Civil Twilight 6:38 AM EST 6:42 PM EST
Nautical Twilight 6:10 AM EST 7:10 PM EST
Astronomical Twilight 5:42 AM EST 7:38 PM EST
Moon 1:01 PM EST (2/19) 2:21 AM EST (2/19)
Length of Visible Light 12h 03m
Length of Day
11h 15m
Waxing Gibbous, 67% of the Moon is Illuminated
Feb 19
Waxing Gibbous
Feb 25
Full
Mar 4
Last Quarter
Mar 11
New
Mar 19
First Quarter

Hourly Weather History & Observations

Time (EST) Temp. Windchill Dew Point Humidity Pressure Visibility Wind Dir Wind Speed Gust Speed Precip Events Conditions
12:56 AM 39.0 °F - 36.0 °F 89% 30.25 in 10.0 mi Calm Calm - N/A   Clear
1:56 AM 37.4 °F 33.8 °F 35.6 °F 93% 30.21 in 10.0 mi SE 4.6 mph - N/A   Clear
2:56 AM 44.1 °F 41.5 °F 42.1 °F 93% 30.18 in 10.0 mi SE 4.6 mph - N/A   Clear
3:56 AM 41.0 °F - 39.0 °F 93% 30.17 in 10.0 mi Calm Calm - N/A   Clear
4:56 AM 42.1 °F - 39.9 °F 92% 30.17 in 10.0 mi Calm Calm - N/A   Partly Cloudy
5:56 AM 42.1 °F - 39.9 °F 92% 30.16 in 10.0 mi Calm Calm - N/A   Partly Cloudy
6:56 AM 42.1 °F - 39.9 °F 92% 30.17 in 10.0 mi Calm Calm - N/A   Scattered Clouds
7:56 AM 50.0 °F - 46.4 °F 87% 30.17 in 10.0 mi South 4.6 mph - N/A   Scattered Clouds
8:56 AM 60.1 °F - 48.0 °F 64% 30.18 in 10.0 mi SSW 8.1 mph - N/A   Scattered Clouds
9:56 AM 66.9 °F - 50.0 °F 54% 30.17 in 10.0 mi South 16.1 mph 20.7 mph N/A   Mostly Cloudy
10:56 AM 72.0 °F - 51.1 °F 48% 30.14 in 10.0 mi SSW 18.4 mph 27.6 mph N/A   Mostly Cloudy
11:56 AM 73.0 °F - 50.0 °F 44% 30.13 in 10.0 mi SW 19.6 mph 27.6 mph N/A   Mostly Cloudy
12:56 PM 75.9 °F - 50.0 °F 40% 30.09 in 10.0 mi SW 18.4 mph 27.6 mph N/A   Mostly Cloudy
1:56 PM 78.1 °F - 48.9 °F 36% 30.04 in 10.0 mi SW 16.1 mph 25.3 mph N/A   Mostly Cloudy
2:56 PM 77.0 °F - 50.0 °F 39% 30.02 in 10.0 mi SW 13.8 mph - N/A   Mostly Cloudy
3:56 PM 73.0 °F - 52.0 °F 48% 30.02 in 10.0 mi WSW 20.7 mph 26.5 mph N/A   Mostly Cloudy
4:56 PM 73.0 °F - 53.1 °F 49% 30.02 in 10.0 mi WSW 15.0 mph - N/A   Mostly Cloudy
5:56 PM 71.1 °F - 54.0 °F 55% 30.04 in 10.0 mi WSW 13.8 mph 23.0 mph N/A   Overcast
7:56 PM 63.0 °F - 60.1 °F 90% 30.08 in 10.0 mi West 10.4 mph - 0.00 in Rain Light Rain
8:46 PM 62.6 °F - 59.0 °F 88% 30.10 in 10.0 mi WNW 9.2 mph - 0.00 in   Overcast
8:56 PM 62.1 °F - 59.0 °F 90% 30.09 in 8.0 mi NW 8.1 mph - 0.00 in Rain Light Rain
9:30 PM 60.8 °F - 57.2 °F 88% 30.09 in 10.0 mi NW 5.8 mph - 0.00 in   Mostly Cloudy
9:56 PM 59.0 °F - 57.0 °F 93% 30.09 in 10.0 mi WNW 3.5 mph - 0.00 in   Mostly Cloudy
10:56 PM 55.9 °F - 55.0 °F 97% 30.12 in 10.0 mi WNW 3.5 mph - N/A   Mostly Cloudy
11:56 PM 55.9 °F - 55.0 °F 97% 30.12 in 10.0 mi West 3.5 mph - N/A   Mostly Cloudy